Weather History for Concordia, KS

Change the Weather History Date:

Tuesday, November 8, 2011

  Actual Average Record
Temperature  
Mean Temperature 40 °F 46 °F  
Max Temperature 42 °F 57 °F 85 °F (2006)
Min Temperature 37 °F 35 °F 12 °F (1991)
Degree Days  
Heating Degree Days 26 19  
Month to date heating degree days 140  
Since 1 July heating degree days 531  
Cooling Degree Days 0 0  
Month to date cooling degree days 0  
Year to date cooling degree days 1348  
Moisture  
Dew Point 39 °F    
Average Humidity 91    
Maximum Humidity 100    
Minimum Humidity 73    
Precipitation  
Precipitation 0.24 in 0.05 in 1.09 in (1977)
Month to date precipitation 0.37  
Year to date precipitation 26.30  
Snow  
Snow 0.00 in 0.00 in T in (1977)
Month to date snowfall 0.3  
Year to date snowfall 14.2  
Since 1 July snowfall 0.5  
Snow Depth -    
Sea Level Pressure  
Sea Level Pressure 30.02 in    
Wind  
Wind Speed 15 mph (NNE)    
Max Wind Speed 26 mph    
Max Gust Speed 36 mph    
Visibility 8 miles    
Events Rain    
T = Trace of Precipitation, MM = Missing Value Source: NWS Daily Summary

Daily Weather History Graph

Daily Weather History Graph

Search for Another Location

Airport:

Trip Planner

Search our weather history database for the weather conditions in past years. The results will help you decide how hot, cold, wet, or windy it might be!

Date:

Astronomy

Nov. 08, 2011 Rise Set
Actual Time 7:06 AM CST 5:21 PM CST
Civil Twilight 6:38 AM CST 5:49 PM CST
Nautical Twilight 6:06 AM CST 6:22 PM CST
Astronomical Twilight 5:34 AM CST 6:53 PM CST
Moon 4:02 PM CST (11/8) 5:06 AM CST (11/8)
Length of Visible Light 11h 11m
Length of Day
10h 15m
Waxing Gibbous, 96% of the Moon is Illuminated
Nov 8
Waxing Gibbous
Nov 10
Full
Nov 18
Last Quarter
Nov 25
New
Dec 2
First Quarter

Hourly Weather History & Observations

Time (CST) Temp. Windchill Dew Point Humidity Pressure Visibility Wind Dir Wind Speed Gust Speed Precip Events Conditions
12:05 AM 42.8 °F 34.8 °F 42.8 °F 100% 29.98 in 4.0 mi NE 17.3 mph 26.5 mph 0.00 in Rain Light Rain
12:29 AM 42.8 °F 36.2 °F 42.8 °F 100% 29.99 in 2.5 mi NE 12.7 mph - 0.01 in Rain Light Rain
12:44 AM 42.8 °F 36.2 °F 42.8 °F 100% 30.00 in 2.0 mi NNE 12.7 mph - 0.03 in Rain Light Rain
12:55 AM 42.1 °F 36.1 °F 42.1 °F 100% 30.01 in 2.0 mi NNE 10.4 mph - 0.04 in Rain Light Rain
1:32 AM 42.8 °F 36.6 °F 42.8 °F 100% 30.00 in 3.0 mi NNE 11.5 mph - 0.03 in Rain Light Rain
1:55 AM 42.1 °F 34.9 °F 42.1 °F 100% 30.01 in 4.0 mi NNE 13.8 mph - 0.03 in Rain Light Rain
2:55 AM 42.8 °F 35.8 °F 41.0 °F 93% 29.96 in 4.0 mi NNE 13.8 mph - N/A   Overcast
3:19 AM 42.8 °F 35.8 °F 41.0 °F 93% 29.95 in 10.0 mi NE 13.8 mph 21.9 mph N/A   Overcast
3:55 AM 42.8 °F 36.2 °F 42.8 °F 100% 29.98 in 9.0 mi NE 12.7 mph 19.6 mph N/A   Overcast
4:55 AM 42.1 °F 35.7 °F 41.0 °F 96% 30.00 in 4.0 mi NE 11.5 mph - 0.00 in Rain Light Rain
5:50 AM 42.8 °F 35.8 °F 41.0 °F 93% 29.97 in 10.0 mi NE 13.8 mph 20.7 mph 0.01 in   Overcast
5:55 AM 42.1 °F 34.9 °F 41.0 °F 96% 29.99 in 10.0 mi NE 13.8 mph 20.7 mph 0.01 in   Overcast
6:55 AM 42.1 °F 36.1 °F 41.0 °F 96% 30.01 in 10.0 mi NE 10.4 mph 20.7 mph N/A   Overcast
7:55 AM 42.1 °F 35.2 °F 39.9 °F 92% 30.03 in 8.0 mi NE 12.7 mph - N/A   Overcast
8:55 AM 42.1 °F 34.5 °F 39.9 °F 92% 30.03 in 5.0 mi NNE 15.0 mph 21.9 mph N/A   Overcast
9:55 AM 42.1 °F 34.9 °F 39.9 °F 92% 30.04 in 7.0 mi NNE 13.8 mph - N/A   Overcast
10:55 AM 42.1 °F 33.6 °F 41.0 °F 96% 30.02 in 3.0 mi NNE 18.4 mph 23.0 mph 0.02 in Rain Light Rain
11:35 AM 41.0 °F 32.8 °F 39.2 °F 93% 30.00 in 6.0 mi NE 16.1 mph 25.3 mph 0.01 in Rain Light Rain
11:55 AM 41.0 °F 32.5 °F 39.9 °F 96% 30.00 in 6.0 mi NE 17.3 mph 26.5 mph 0.03 in Rain Light Rain
12:55 PM 42.8 °F 34.5 °F 42.8 °F 100% 29.96 in 7.0 mi NNE 18.4 mph 25.3 mph N/A Rain Light Rain
1:37 PM 42.8 °F 34.3 °F 42.8 °F 100% 29.96 in 10.0 mi NNE 19.6 mph 27.6 mph 0.01 in   Overcast
1:47 PM 42.8 °F 33.8 °F 41.0 °F 93% 29.96 in 10.0 mi NNE 21.9 mph 28.8 mph 0.01 in   Overcast
1:55 PM 42.1 °F 33.6 °F 42.1 °F 100% 29.97 in 10.0 mi NNE 18.4 mph 31.1 mph 0.01 in   Overcast
2:55 PM 41.0 °F 32.2 °F 39.2 °F 93% 29.95 in 10.0 mi NNE 18.4 mph 29.9 mph N/A   Overcast
3:55 PM 41.0 °F 32.8 °F 37.4 °F 87% 29.98 in 6.0 mi NNE 16.1 mph 24.2 mph N/A Rain Light Rain
4:23 PM 41.0 °F 33.5 °F 37.4 °F 87% 29.99 in 9.0 mi NNE 13.8 mph 21.9 mph 0.02 in Rain Light Rain
4:55 PM 39.9 °F 29.0 °F 36.0 °F 86% 30.01 in 6.0 mi NNE 26.5 mph 34.5 mph 0.03 in Rain Rain
5:03 PM 39.2 °F 28.3 °F 35.6 °F 87% 29.98 in 6.0 mi NNE 25.3 mph 33.4 mph 0.01 in Rain Light Rain
5:55 PM 39.9 °F 31.1 °F 35.1 °F 83% 30.03 in 10.0 mi North 17.3 mph 25.3 mph 0.02 in Rain Light Rain
6:13 PM 39.2 °F 29.8 °F 33.8 °F 81% 30.02 in 10.0 mi North 18.4 mph 35.7 mph 0.01 in Rain Light Rain
6:40 PM 39.2 °F 30.2 °F 33.8 °F 81% 30.04 in 10.0 mi North 17.3 mph 26.5 mph 0.01 in Rain Light Rain
6:55 PM 39.9 °F 30.0 °F 32.0 °F 73% 30.08 in 10.0 mi NNE 21.9 mph 35.7 mph 0.01 in Rain Light Rain
7:18 PM 39.2 °F 28.3 °F 32.0 °F 75% 30.07 in 10.0 mi North 25.3 mph 33.4 mph 0.01 in Rain Light Rain
7:55 PM 37.9 °F 28.9 °F 34.0 °F 86% 30.11 in 10.0 mi North 16.1 mph 28.8 mph 0.03 in Rain Light Rain
8:13 PM 37.4 °F 27.5 °F 33.8 °F 87% 30.09 in 10.0 mi NNE 18.4 mph 28.8 mph 0.01 in Rain Light Rain
8:55 PM 37.9 °F 32.1 °F 34.0 °F 86% 30.12 in 10.0 mi NNE 8.1 mph - 0.01 in Rain Light Rain
9:55 PM 37.9 °F 32.1 °F 35.1 °F 89% 30.13 in 10.0 mi NNW 8.1 mph - 0.00 in   Overcast
10:55 PM 39.0 °F 32.3 °F 33.1 °F 79% 30.14 in 10.0 mi NNW 10.4 mph - N/A   Mostly Cloudy
11:55 PM 37.9 °F 30.9 °F 30.9 °F 76% 30.15 in 10.0 mi NW 10.4 mph - N/A   Scattered Clouds